sat.trackr.live / text

‹ back to catalog

FOSSASAT-2E18 (TAT-A)

NORAD 62686 · 2025-009CF

PAYLOAD ACTIVE UNKNOWN

§ Identity

Operator
Country
SPN
Launch date
2025-01-14
Launch site
AFWTR
Launch vehicle
Mass (kg)
RCS (m²)

External: N2YO · Heavens-Above · Gunter

§ Orbital elements

Epoch: 2026-05-23T17:21:08.662752Z

Period
94.68 min
Inclination
97.3971°
Eccentricity
0.0007511
Mean motion
15.20898233 rev/d
Perigee alt
498.0 km
Apogee alt
508.3 km
Semi-major
6,881.3 km
B*
9.1055e-5
RAAN
222.5005°
Arg perigee
70.0050°
Mean anomaly
290.1994°
Rev number
7,497

§ Raw data

FOSSASAT-2E18 (TAT-A)1 62686U 25009CF  26143.72301693  .00001945  00000+0  91055-4 0  99932 62686  97.3971 222.5005 0007511  70.0050 290.1994 15.20898233 74970

JSON: /api/v1/satellites/62686 · /tle

For live sub-satellite position, see the globe view (requires WebGL).

§ Visibility from observer

Set your observer location to see the next 7 days of passes ≥ 10°. The values pass through the URL so the page stays shareable.

No JS? Fill the form by hand. The geolocation button needs JavaScript.

§ Radio — SatNOGS DB

ModeDescriptionDownlinkUplink
LoRa Mode U - LoRa 401.700 MHz

1 transmitter · refreshed weekly from db.satnogs.org